This is the latest recevied weather packets stored in our database for station/object IZ1UQG-1. If no packets are shown the sender has not sent any weather packets the latest 10 day(s).
| Time | Temp. | Humidity | Pressure | Rain* | Wind** | Luminosity | Snow |
|---|---|---|---|---|---|---|---|
| 1777974835 | 15.56° C | 76% | 1014 hPa | 121.16 mm | - | - | - |
| 1777974535 | 15.56° C | 76% | 1014.1 hPa | 98.3 mm | - | - | - |
| 1777974235 | 15.56° C | 76% | 1014 hPa | 73.91 mm | - | - | - |
| 1777973935 | 15.56° C | 75% | 1014.1 hPa | 17.53 mm | - | - | - |
| 1777973635 | 15.56° C | 75% | 1014.1 hPa | 114.81 mm | - | - | - |
| 1777973336 | 15.56° C | 75% | 1014 hPa | 107.19 mm | - | - | - |
| 1777973035 | 15.56° C | 75% | 1013.9 hPa | 70.36 mm | - | - | - |
| 1777972736 | 15° C | 75% | 1013.9 hPa | 69.34 mm | - | - | - |
| 1777972435 | 15° C | 75% | 1013.8 hPa | 214.38 mm | - | - | - |
| 1777972135 | 15° C | 75% | 1013.8 hPa | 157.23 mm | - | - | - |
| 1777971835 | 15° C | 75% | 1014 hPa | 213.87 mm | - | - | - |
| 1777971536 | 15° C | 75% | 1013.8 hPa | 165.61 mm | - | - | - |
| 1777971236 | 15° C | 75% | 1013.7 hPa | 237.49 mm | - | - | - |
| 1777970936 | 15° C | 74% | 1013.7 hPa | 202.95 mm | - | - | - |
| 1777970636 | 15° C | 74% | 1013.7 hPa | 195.58 mm | - | - | - |
| 1777970336 | 15° C | 74% | 1013.8 hPa | 103.89 mm | - | - | - |
| 1777970036 | 15° C | 74% | 1013.7 hPa | 211.84 mm | - | - | - |
| 1777969736 | 15° C | 74% | 1013.8 hPa | 200.41 mm | - | - | - |
| 1777969436 | 15° C | 74% | 1013.8 hPa | 173.48 mm | - | - | - |
| 1777969136 | 15° C | 74% | 1013.8 hPa | 82.8 mm | - | - | - |
| 1777968836 | 15° C | 74% | 1013.9 hPa | 185.42 mm | - | - | - |
| 1777968536 | 15° C | 73% | 1014 hPa | 192.53 mm | - | - | - |
| 1777968236 | 15° C | 73% | 1014 hPa | 118.36 mm | - | - | - |
| 1777967936 | 15° C | 73% | 1014 hPa | 34.04 mm | - | - | - |
| 1777967636 | 15° C | 73% | 1014.1 hPa | 146.56 mm | - | - | - |
* Rain latest hour (hover to see other rain measurements)
** Current wind speed in m/s (hover to see current wind gust speed)